Home   Weather   Vantaa   Past weeks

Flag for Finland Past Weather in Vantaa, Finland — Yesterday and Last 2 Weeks

Now
54 °F

Passing clouds.


Feels Like: 53 °F
Forecast: 42 / 61 °F
Wind: 5 mph from West

Location: Helsinki-Vantaa

Current Time: Sep 27, 2016 at 1:34:14 AM

Latest Report: Sep 27, 2016 at 12:50 AM


Visibility: N/A

Pressure: 30.30 "Hg

Humidity: 94%

Dew Point: 52 °F

Location of VantaaLocation

Past Weather in Vantaa — Graph

°F

Vantaa Temperature Yesterday

Maximum temperature yesterday: 63 °F (at 2:20 PM)
Minimum temperature yesterday: 50 °F (at 2:50 AM)
Average temperature yesterday: 56 °F

High & Low Weather Summary for the Past Weeks

 TemperatureHumidityPressure
High68 °F (Sep 12, 4:20 PM)100% (Sep 12, 2:50 AM)30.30 "Hg (Sep 12, 2:50 AM)
Low36 °F (Sep 19, 4:20 AM)43% (Sep 12, 4:20 PM)29.86 "Hg (Sep 24, 2:20 AM)
Average52 °F80%30.13 "Hg
* Reported Sep 12 12:20 AM — Sep 27 12:20 AM, Vantaa, Weather by CustomWeather, © 2016

Note: Actual official high and low records may vary slightly from our data, if they occured in-between our weather recording intervals... More about our weather records

Advertising

Vantaa Weather History for the Previous 24 Hours

Scroll right to see more
 ConditionsComfort  
Time TempWeatherWind HumidityBarometerVisibility
12:20 AM
Tue, Sep 27
52 °FPassing clouds.5 mph94%30.30 "HgN/A
11:50 PM
Mon, Sep 26
52 °FPassing clouds.5 mph94%30.30 "HgN/A
11:20 PM54 °FPartly cloudy.3 mph94%30.30 "HgN/A
10:50 PM54 °FPartly cloudy.3 mph94%30.30 "HgN/A
10:20 PM54 °FPassing clouds.3 mph94%30.30 "HgN/A
9:50 PM55 °FPassing clouds.1 mph88%30.30 "HgN/A
9:20 PM54 °FPassing clouds.1 mph100%30.30 "HgN/A
8:50 PM54 °FPartly cloudy.2 mph94%30.27 "HgN/A
8:20 PM55 °FPassing clouds.5 mph94%30.27 "HgN/A
7:50 PM55 °FPassing clouds.6 mph94%30.27 "HgN/A
7:20 PM55 °FClear.5 mph88%30.27 "Hg10 mi
6:50 PM57 °FSunny.7 mph88%30.27 "Hg10 mi
6:20 PM59 °FPartly sunny.7 mph82%30.27 "HgN/A
5:50 PM61 °FPartly sunny.7 mph77%30.27 "HgN/A
5:20 PM61 °FPartly sunny.8 mph77%30.27 "HgN/A
4:50 PM61 °FPartly sunny.9 mph77%30.27 "HgN/A
4:20 PM61 °FPartly sunny.9 mph77%30.27 "HgN/A
3:50 PM63 °FScattered clouds.8 mph73%30.27 "HgN/A
3:20 PM63 °FScattered clouds.9 mph73%30.27 "HgN/A
2:50 PM63 °FScattered clouds.10 mph64%30.27 "HgN/A
2:20 PM63 °FBroken clouds.9 mph68%30.27 "HgN/A
1:50 PM61 °FPartly sunny.9 mph72%30.27 "HgN/A
1:20 PM61 °FPartly sunny.8 mph72%30.27 "HgN/A
12:50 PM61 °FBroken clouds.9 mph72%30.27 "HgN/A
12:20 PM61 °FBroken clouds.8 mph77%30.27 "HgN/A
11:50 AM59 °FBroken clouds.7 mph82%30.27 "HgN/A
11:20 AM59 °FBroken clouds.8 mph88%30.27 "HgN/A
10:50 AM59 °FBroken clouds.8 mph88%30.27 "HgN/A
10:20 AM57 °FPartly sunny.8 mph94%30.27 "HgN/A
9:50 AM55 °FBroken clouds.7 mph100%30.27 "HgN/A
9:20 AM55 °FPartly sunny.7 mph94%30.27 "Hg4 mi
8:50 AM54 °FFog.5 mph100%30.27 "Hg1 mi
8:20 AM54 °FFog.7 mph94%30.27 "Hg0 mi
7:50 AM50 °FFog.3 mph100%30.27 "Hg0 mi
7:20 AM50 °FFog.2 mph94%30.27 "Hg1 mi
6:50 AM50 °FFog.2 mph100%30.27 "Hg0 mi
6:20 AM50 °FFog.2 mph100%30.27 "Hg0 mi
5:50 AM52 °FFog.2 mph94%30.27 "Hg0 mi
5:20 AM52 °FFog.2 mph94%30.27 "Hg0 mi
4:50 AM52 °FLight fog.3 mph94%30.27 "Hg1 mi
4:20 AM52 °FFog.5 mph100%30.27 "HgN/A
3:50 AM52 °FFog.7 mph94%30.27 "HgN/A
3:20 AM50 °FFog.7 mph100%30.27 "HgN/A
2:50 AM50 °FFog.6 mph100%30.27 "HgN/A
2:20 AM52 °FPassing clouds.6 mph100%30.27 "HgN/A
1:50 AM52 °FPassing clouds.7 mph94%30.27 "HgN/A
Weather by CustomWeather, © 2016

See weather overviewHow to use our weather pages